Flag for U.S.A. Weather past 2 weeks in Aspen, Colorado, U.S.A.

Now
70 °F

Thundershowers. Scattered clouds.


Feels Like: 77 °F
Forecast: 51 / 74 °F
Wind: 12 mph from North

Location: Aspen-Pitkin County Airport

Current Time: Jul 6, 2015 at 2:23:11 PM

Latest Report: Jul 6, 2015 at 1:53 PM


Visibility: 10 mi

Pressure: 29.98 "Hg (22.66 "Hg at 2411m altitude)

Humidity: 46%

Dew point: 48 °F

Location of AspenLocation

Historic Weather in Aspen — Graph

°F

Aspen temperature yesterday

Maximum temperature yesterday: 69 °F (at 11:53 AM)
Minimum temperature yesterday: 53 °F (at 5:53 AM)
Average temperature yesterday: 62 °F

Past Weeks' High & Low Weather Summary

 TemperatureHumidityPressure
High87 °F (Jun 21, 3:53 PM)93% (Jul 5, 11:53 PM)30.29 "Hg (Jul 5, 11:53 PM)
Low47 °F (Jun 25, 5:53 AM)6% (Jun 22, 1:53 PM)29.77 "Hg (Jul 4, 2:53 PM)
Average68 °F44%29.93 "Hg
* Reported Jun 21 12:53 PM — Jul 6 12:53 PM, Aspen, Weather by CustomWeather, © 2015

Note: Actual official high and low records may vary slightly from our data, if they occured in-between our weather recording intervals... More about our weather records

Advertising

Aspen weather history for previous 24 hours

 ConditionsComfort  
Time TempWeatherWind HumidityBarometerVisibility
12:53 PM
Mon, Jul 6
72 °FScattered clouds.10 mph43%29.96 "Hg10 mi
11:53 AM69 °FScattered clouds.9 mph47%29.99 "Hg10 mi
10:53 AM66 °FScattered clouds.6 mph61%30.00 "Hg10 mi
9:53 AM61 °FOvercast.6 mph75%30.03 "Hg10 mi
8:53 AM61 °FBroken clouds.No wind70%30.01 "Hg10 mi
7:53 AM56 °FPartly sunny.No wind84%30.01 "Hg10 mi
6:53 AM53 °FPartly sunny.3 mph86%30.00 "Hg10 mi
5:53 AM51 °FOvercast.No wind89%30.01 "Hg10 mi
4:53 AM50 °FPassing clouds.6 mph89%30.01 "Hg10 mi
3:53 AM51 °FPassing clouds.5 mph89%29.99 "Hg10 mi
2:53 AM51 °FPassing clouds.5 mph89%29.97 "Hg10 mi
1:53 AM52 °FPassing clouds.5 mph89%29.97 "Hg10 mi
12:53 AM53 °FClear.7 mph89%29.96 "Hg10 mi
11:53 PM
Sun, Jul 5
55 °FClear.5 mph93%29.94 "Hg10 mi
10:53 PM58 °FOvercast.6 mph87%29.93 "Hg10 mi
9:53 PM57 °FLight rain. Overcast.7 mph90%29.95 "Hg9 mi
9:00 PM59 °FRain. Cloudy.3 mph84%30.29 "Hg5 mi
7:53 PM64 °FMostly cloudy.3 mph73%29.89 "Hg10 mi
6:53 PM65 °FPartly sunny.No wind70%29.88 "Hg10 mi
5:53 PM64 °FMostly cloudy.5 mph70%29.90 "Hg10 mi
4:53 PM64 °FLight rain. Mostly cloudy.8 mph70%29.90 "Hg10 mi
3:53 PM64 °FOvercast.12 mph70%29.89 "Hg10 mi
2:53 PM69 °FScattered clouds.No wind55%29.85 "Hg10 mi
Weather by CustomWeather, © 2015

See weather overviewHow to use our weather pages